Tracking 19651 objects as of 23-Apr-2019
HD Live streaming from Space Station
objects crossing your sky now

SL-16 DEB

Track SL-16 DEB now!
10-day predictions


NORAD ID: 39889
Int'l Code: 1993-016BP
Perigee: 650.8 km
Apogee: 744.9 km
Inclination: 70.9 °
Period: 98.6 minutes
Semi major axis: 7068 km
RCS: 0.0105 m2 (small)
Launch date: March 26, 1993
Source: Commonwealth of Independent States (former USSR) (CIS)
Launch site: TYURATAM MISSILE AND SPACE COMPLEX (TTMTR)

Note: This is SATELLITE DEBRIS
aabbcc
Your satellite tracking list
Your tracking list is empty




NASA's NSSDC Master Catalog

Two Line Element Set (TLE):
1 39889U 93016BP  19110.77473346 +.00002901 +00000-0 +58789-3 0  9991
2 39889 070.9198 159.7490 0066601 166.2652 194.0328 14.60759124258488
Source of the keplerian elements: AFSPC